Time,TemperatureF,DewpointF,PressureIn,WindDirection,WindDirectionDegrees,WindSpeedMPH,WindSpeedGustMPH,Humidity,HourlyPrecipIn,Conditions,Clouds,dailyrainin,SoftwareType,DateUTC
2013-09-26 00:00:00,77.2,47.4,29.78,SSE,152,0.0,5.8,35,0.00,,---,0.00,VWS V14.00,2013-09-26 05:00:00,
2013-09-26 00:10:00,76.6,47.7,29.78,SSE,151,0.0,3.6,36,0.00,,---,0.00,VWS V14.00,2013-09-26 05:10:00,
2013-09-26 00:20:00,76.5,47.5,29.78,SSE,154,0.0,4.5,36,0.00,,---,0.00,VWS V14.00,2013-09-26 05:20:00,
2013-09-26 00:30:00,76.6,47.7,29.78,SSE,153,2.7,5.4,36,0.00,,---,0.00,VWS V14.00,2013-09-26 05:30:00,
2013-09-26 00:40:00,77.2,47.4,29.78,ESE,118,0.0,4.5,35,0.00,,---,0.00,VWS V14.00,2013-09-26 05:40:00,
2013-09-26 00:50:00,77.2,47.4,29.78,ESE,115,0.0,4.5,35,0.00,,---,0.00,VWS V14.00,2013-09-26 05:50:00,
2013-09-26 01:00:00,76.8,47.1,29.78,ESE,120,0.0,6.3,35,0.00,,---,0.00,VWS V14.00,2013-09-26 06:00:00,
2013-09-26 01:10:00,76.5,46.8,29.78,SE,142,0.0,4.5,35,0.00,,---,0.00,VWS V14.00,2013-09-26 06:10:00,
2013-09-26 01:20:00,76.5,46.8,29.78,ESE,123,0.0,5.4,35,0.00,,---,0.00,VWS V14.00,2013-09-26 06:20:00,
2013-09-26 01:30:00,76.5,46.8,29.78,SSE,157,0.0,4.9,35,0.00,,---,0.00,VWS V14.00,2013-09-26 06:30:00,
2013-09-26 01:40:00,76.6,47.0,29.78,SE,146,0.0,5.4,35,0.00,,---,0.00,VWS V14.00,2013-09-26 06:40:00,
2013-09-26 01:50:00,76.6,46.2,29.78,SSE,153,0.0,5.8,34,0.00,,---,0.00,VWS V14.00,2013-09-26 06:50:00,
2013-09-26 02:00:00,76.6,46.2,29.78,SSE,163,0.0,5.8,34,0.00,,---,0.00,VWS V14.00,2013-09-26 07:00:00,
2013-09-26 02:10:00,76.8,46.3,29.78,South,170,0.0,3.6,34,0.00,,---,0.00,VWS V14.00,2013-09-26 07:10:00,
2013-09-26 02:20:00,76.6,46.2,29.78,SSE,151,0.0,0.0,34,0.00,,---,0.00,VWS V14.00,2013-09-26 07:20:00,
2013-09-26 02:30:00,76.5,45.2,29.78,SSE,151,0.0,0.0,33,0.00,,---,0.00,VWS V14.00,2013-09-26 07:30:00,
2013-09-26 02:40:00,75.7,45.4,29.78,SSE,149,0.0,0.0,34,0.00,,---,0.00,VWS V14.00,2013-09-26 07:40:00,
2013-09-26 02:50:00,75.4,45.1,29.78,SE,124,0.0,0.0,34,0.00,,---,0.00,VWS V14.00,2013-09-26 07:50:00,
2013-09-26 03:00:00,75.4,45.1,29.78,ESE,117,0.0,4.0,34,0.00,,---,0.00,VWS V14.00,2013-09-26 08:00:00,
2013-09-26 03:10:00,75.2,44.9,29.78,ESE,120,0.0,0.0,34,0.00,,---,0.00,VWS V14.00,2013-09-26 08:10:00,
2013-09-26 03:20:00,75.2,44.9,29.78,ESE,119,0.0,2.7,34,0.00,,---,0.00,VWS V14.00,2013-09-26 08:20:00,
2013-09-26 03:30:00,75.0,44.8,29.78,SE,141,0.0,5.8,34,0.00,,---,0.00,VWS V14.00,2013-09-26 08:30:00,
2013-09-26 03:40:00,75.0,44.8,29.78,SE,145,0.0,6.7,34,0.00,,---,0.00,VWS V14.00,2013-09-26 08:40:00,
2013-09-26 03:50:00,75.2,44.9,29.78,SSE,149,0.0,4.0,34,0.00,,---,0.00,VWS V14.00,2013-09-26 08:50:00,
2013-09-26 04:00:00,75.2,44.9,29.78,SE,129,0.0,5.8,34,0.00,,---,0.00,VWS V14.00,2013-09-26 09:00:00,
2013-09-26 04:10:00,75.4,45.1,29.78,SSE,151,0.0,5.8,34,0.00,,---,0.00,VWS V14.00,2013-09-26 09:10:00,
2013-09-26 04:20:00,75.4,45.1,29.78,SSE,152,0.0,3.6,34,0.00,,---,0.00,VWS V14.00,2013-09-26 09:20:00,
2013-09-26 04:30:00,75.4,45.1,29.78,ESE,108,0.0,2.7,34,0.00,,---,0.00,VWS V14.00,2013-09-26 09:30:00,
2013-09-26 04:40:00,75.2,44.9,29.78,ESE,105,0.0,0.0,34,0.00,,---,0.00,VWS V14.00,2013-09-26 09:40:00,
2013-09-26 04:50:00,75.2,44.9,29.78,ESE,106,0.0,4.0,34,0.00,,---,0.00,VWS V14.00,2013-09-26 09:50:00,
2013-09-26 05:00:00,75.2,44.9,29.78,ESE,103,0.0,0.0,34,0.00,,---,0.00,VWS V14.00,2013-09-26 10:00:00,
2013-09-26 05:10:00,75.0,44.8,29.78,SSE,152,0.0,4.0,34,0.00,,---,0.00,VWS V14.00,2013-09-26 10:10:00,
2013-09-26 05:20:00,74.7,44.5,29.78,SSE,148,4.0,4.0,34,0.00,,---,0.00,VWS V14.00,2013-09-26 10:20:00,
2013-09-26 05:30:00,74.5,45.1,29.78,ESE,120,0.0,4.0,35,0.00,,---,0.00,VWS V14.00,2013-09-26 10:30:00,
2013-09-26 05:40:00,74.3,45.7,29.78,ESE,114,0.0,0.0,36,0.00,,---,0.00,VWS V14.00,2013-09-26 10:40:00,
2013-09-26 05:50:00,74.1,46.2,29.78,SSE,152,0.0,3.1,37,0.00,,---,0.00,VWS V14.00,2013-09-26 10:50:00,
2013-09-26 06:00:00,74.1,46.9,29.78,SSE,152,0.0,0.0,38,0.00,,---,0.00,VWS V14.00,2013-09-26 11:00:00,
2013-09-26 06:10:00,73.9,47.5,29.78,SSE,152,0.0,0.0,39,0.00,,---,0.00,VWS V14.00,2013-09-26 11:10:00,
2013-09-26 06:20:00,73.9,48.8,29.78,SSE,151,0.0,0.0,41,0.00,,---,0.00,VWS V14.00,2013-09-26 11:20:00,
2013-09-26 06:30:00,73.8,49.3,29.80,SSE,152,0.0,0.0,42,0.00,,---,0.00,VWS V14.00,2013-09-26 11:30:00,
2013-09-26 06:40:00,73.8,49.3,29.80,SSE,153,0.0,3.1,42,0.00,,---,0.00,VWS V14.00,2013-09-26 11:40:00,
2013-09-26 06:50:00,73.6,49.7,29.80,East,92,0.0,2.7,43,0.00,,---,0.00,VWS V14.00,2013-09-26 11:50:00,
2013-09-26 07:00:00,73.2,49.4,29.80,East,92,0.0,0.0,43,0.00,,---,0.00,VWS V14.00,2013-09-26 12:00:00,
2013-09-26 07:10:00,72.9,49.7,29.80,East,92,0.0,3.1,44,0.00,,---,0.00,VWS V14.00,2013-09-26 12:10:00,
2013-09-26 07:20:00,72.0,50.1,29.80,East,93,0.0,0.0,46,0.00,,---,0.00,VWS V14.00,2013-09-26 12:20:00,
2013-09-26 07:30:00,72.0,50.7,29.83,East,90,0.0,0.0,47,0.00,,---,0.00,VWS V14.00,2013-09-26 12:30:00,
2013-09-26 07:40:00,71.6,50.9,29.83,East,95,0.0,0.0,48,0.00,,---,0.00,VWS V14.00,2013-09-26 12:40:00,
2013-09-26 07:50:00,71.6,51.5,29.83,East,93,0.0,0.0,49,0.00,,---,0.00,VWS V14.00,2013-09-26 12:50:00,
2013-09-26 08:00:00,71.2,52.2,29.83,East,95,0.0,0.0,51,0.00,,---,0.00,VWS V14.00,2013-09-26 13:00:00,
2013-09-26 08:10:00,71.6,53.1,29.83,East,94,0.0,0.0,52,0.00,,---,0.00,VWS V14.00,2013-09-26 13:10:00,
2013-09-26 08:20:00,71.8,54.3,29.83,East,95,0.0,0.0,54,0.00,,---,0.00,VWS V14.00,2013-09-26 13:20:00,
2013-09-26 08:30:00,71.8,55.3,29.83,East,93,0.0,0.0,56,0.00,,---,0.00,VWS V14.00,2013-09-26 13:30:00,
2013-09-26 08:40:00,72.5,55.4,29.83,East,90,0.0,0.0,55,0.00,,---,0.00,VWS V14.00,2013-09-26 13:40:00,
2013-09-26 08:50:00,73.2,56.1,29.83,East,91,0.0,0.0,55,0.00,,---,0.00,VWS V14.00,2013-09-26 13:50:00,
2013-09-26 09:00:00,73.8,57.1,29.86,East,90,0.0,0.0,56,0.00,,---,0.00,VWS V14.00,2013-09-26 14:00:00,
2013-09-26 09:10:00,74.7,57.4,29.86,East,92,0.0,2.7,55,0.00,,---,0.00,VWS V14.00,2013-09-26 14:10:00,
2013-09-26 09:20:00,75.9,58.1,29.86,East,92,0.0,0.0,54,0.00,,---,0.00,VWS V14.00,2013-09-26 14:20:00,
2013-09-26 09:30:00,77.0,58.0,29.86,East,92,0.0,0.0,52,0.00,,---,0.00,VWS V14.00,2013-09-26 14:30:00,
2013-09-26 09:40:00,77.9,57.8,29.86,East,92,0.0,0.0,50,0.00,,---,0.00,VWS V14.00,2013-09-26 14:40:00,
2013-09-26 09:50:00,78.8,58.6,29.86,East,96,0.0,0.0,50,0.00,,---,0.00,VWS V14.00,2013-09-26 14:50:00,
2013-09-26 10:00:00,79.7,58.3,29.86,East,96,0.0,0.0,48,0.00,,---,0.00,VWS V14.00,2013-09-26 15:00:00,
2013-09-26 10:10:00,80.6,58.5,29.86,East,93,0.0,0.0,47,0.00,,---,0.00,VWS V14.00,2013-09-26 15:10:00,
2013-09-26 10:20:00,81.5,58.8,29.86,ESE,121,0.0,0.0,46,0.00,,---,0.00,VWS V14.00,2013-09-26 15:20:00,
2013-09-26 10:30:00,82.2,58.8,29.86,ESE,119,0.0,0.0,45,0.00,,---,0.00,VWS V14.00,2013-09-26 15:30:00,
2013-09-26 10:40:00,83.1,59.0,29.86,SSW,203,0.0,3.6,44,0.00,,---,0.00,VWS V14.00,2013-09-26 15:40:00,
2013-09-26 10:50:00,84.2,59.3,29.86,SSW,206,0.0,0.0,43,0.00,,---,0.00,VWS V14.00,2013-09-26 15:50:00,
2013-09-26 11:00:00,84.9,59.3,29.86,SSW,200,0.0,2.7,42,0.00,,---,0.00,VWS V14.00,2013-09-26 16:00:00,
2013-09-26 11:10:00,86.0,59.6,29.86,WSW,237,0.0,4.9,41,0.00,,---,0.00,VWS V14.00,2013-09-26 16:10:00,
2013-09-26 11:20:00,86.9,59.0,29.86,West,263,0.0,5.4,39,0.00,,---,0.00,VWS V14.00,2013-09-26 16:20:00,
2013-09-26 11:30:00,87.4,58.7,29.86,SE,127,0.0,6.7,38,0.00,,---,0.00,VWS V14.00,2013-09-26 16:30:00,
2013-09-26 11:40:00,88.2,58.6,29.86,WSW,250,0.0,5.4,37,0.00,,---,0.00,VWS V14.00,2013-09-26 16:40:00,
2013-09-26 11:50:00,88.5,57.4,29.86,SSW,207,0.0,4.5,35,0.00,,---,0.00,VWS V14.00,2013-09-26 16:50:00,
2013-09-26 12:00:00,89.2,57.2,29.86,WSW,237,3.6,5.8,34,0.00,,---,0.00,VWS V14.00,2013-09-26 17:00:00,
2013-09-26 12:10:00,89.6,56.7,29.86,SSE,149,0.0,5.8,33,0.00,,---,0.00,VWS V14.00,2013-09-26 17:10:00,
2013-09-26 12:20:00,90.0,56.2,29.86,SSW,201,0.0,3.6,32,0.00,,---,0.00,VWS V14.00,2013-09-26 17:20:00,
2013-09-26 12:30:00,90.7,56.8,29.86,SW,235,0.0,3.6,32,0.00,,---,0.00,VWS V14.00,2013-09-26 17:30:00,
2013-09-26 12:40:00,90.9,56.1,29.86,WSW,256,0.0,6.3,31,0.00,,---,0.00,VWS V14.00,2013-09-26 17:40:00,
2013-09-26 12:50:00,91.4,56.5,29.86,NNW,345,0.0,9.2,31,0.00,,---,0.00,VWS V14.00,2013-09-26 17:50:00,
2013-09-26 13:00:00,91.9,56.1,29.86,SSW,195,0.0,4.0,30,0.00,,---,0.00,VWS V14.00,2013-09-26 18:00:00,
2013-09-26 13:10:00,92.3,56.4,29.86,ESE,107,0.0,6.9,30,0.00,,---,0.00,VWS V14.00,2013-09-26 18:10:00,
2013-09-26 13:20:00,92.8,55.9,29.86,SSW,194,2.7,5.4,29,0.00,,---,0.00,VWS V14.00,2013-09-26 18:20:00,
2013-09-26 13:30:00,92.8,55.9,29.83,SW,228,0.0,7.8,29,0.00,,---,0.00,VWS V14.00,2013-09-26 18:30:00,
2013-09-26 13:40:00,93.2,55.3,29.83,WSW,237,0.0,6.7,28,0.00,,---,0.00,VWS V14.00,2013-09-26 18:40:00,
2013-09-26 13:50:00,95.0,56.8,29.83,ESE,107,0.0,5.4,28,0.00,,---,0.00,VWS V14.00,2013-09-26 18:50:00,
2013-09-26 14:00:00,96.3,56.9,29.83,SSW,196,0.0,3.1,27,0.00,,---,0.00,VWS V14.00,2013-09-26 19:00:00,
2013-09-26 14:10:00,95.2,56.0,29.83,SSE,154,0.0,6.3,27,0.00,,---,0.00,VWS V14.00,2013-09-26 19:10:00,
2013-09-26 14:20:00,95.5,56.3,29.83,WSW,238,0.0,4.0,27,0.00,,---,0.00,VWS V14.00,2013-09-26 19:20:00,
2013-09-26 14:30:00,96.8,56.3,29.83,SE,125,0.0,8.3,26,0.00,,---,0.00,VWS V14.00,2013-09-26 19:30:00,
2013-09-26 14:40:00,97.0,56.4,29.83,SE,126,0.0,7.4,26,0.00,,---,0.00,VWS V14.00,2013-09-26 19:40:00,
2013-09-26 14:50:00,96.6,56.1,29.83,WSW,249,0.0,6.7,26,0.00,,---,0.00,VWS V14.00,2013-09-26 19:50:00,
2013-09-26 15:00:00,96.8,56.3,29.83,ESE,108,0.0,7.4,26,0.00,,---,0.00,VWS V14.00,2013-09-26 20:00:00,
2013-09-26 15:10:00,97.0,56.4,29.80,SE,145,0.0,6.3,26,0.00,,---,0.00,VWS V14.00,2013-09-26 20:10:00,
2013-09-26 15:20:00,97.9,56.1,29.80,SE,146,0.0,7.4,25,0.00,,---,0.00,VWS V14.00,2013-09-26 20:20:00,
2013-09-26 15:30:00,97.7,54.8,29.80,South,188,4.0,9.2,24,0.00,,---,0.00,VWS V14.00,2013-09-26 20:30:00,
2013-09-26 15:40:00,97.9,53.8,29.80,SE,137,3.6,6.7,23,0.00,,---,0.00,VWS V14.00,2013-09-26 20:40:00,
2013-09-26 15:50:00,96.6,52.8,29.80,SE,138,0.0,6.7,23,0.00,,---,0.00,VWS V14.00,2013-09-26 20:50:00,
2013-09-26 16:00:00,96.4,52.6,29.80,SW,214,0.0,4.9,23,0.00,,---,0.00,VWS V14.00,2013-09-26 21:00:00,
2013-09-26 16:10:00,95.5,51.9,29.80,SE,140,0.0,7.4,23,0.00,,---,0.00,VWS V14.00,2013-09-26 21:10:00,
2013-09-26 16:20:00,95.7,52.0,29.80,SSE,150,0.0,5.4,23,0.00,,---,0.00,VWS V14.00,2013-09-26 21:20:00,
2013-09-26 16:30:00,94.8,51.3,29.80,SSE,152,0.0,4.0,23,0.00,,---,0.00,VWS V14.00,2013-09-26 21:30:00,
2013-09-26 16:40:00,94.1,50.7,29.80,SSE,153,0.0,4.9,23,0.00,,---,0.00,VWS V14.00,2013-09-26 21:40:00,
2013-09-26 16:50:00,93.6,50.2,29.80,SSE,156,0.0,6.9,23,0.00,,---,0.00,VWS V14.00,2013-09-26 21:50:00,
2013-09-26 17:00:00,93.0,49.8,29.80,SW,233,0.0,6.7,23,0.00,,---,0.00,VWS V14.00,2013-09-26 22:00:00,
2013-09-26 17:10:00,92.3,49.2,29.80,SW,228,0.0,4.9,23,0.00,,---,0.00,VWS V14.00,2013-09-26 22:10:00,
2013-09-26 17:20:00,91.8,49.9,29.80,South,191,2.7,3.1,24,0.00,,---,0.00,VWS V14.00,2013-09-26 22:20:00,
2013-09-26 17:30:00,91.4,49.6,29.80,SW,225,0.0,4.0,24,0.00,,---,0.00,VWS V14.00,2013-09-26 22:30:00,
2013-09-26 17:40:00,90.9,49.1,29.80,ESE,110,0.0,4.0,24,0.00,,---,0.00,VWS V14.00,2013-09-26 22:40:00,
2013-09-26 17:50:00,90.7,49.0,29.80,SE,141,0.0,7.4,24,0.00,,---,0.00,VWS V14.00,2013-09-26 22:50:00,
2013-09-26 18:00:00,90.3,49.8,29.80,SE,137,0.0,6.9,25,0.00,,---,0.00,VWS V14.00,2013-09-26 23:00:00,
2013-09-26 18:10:00,90.0,49.5,29.80,SE,142,0.0,5.4,25,0.00,,---,0.00,VWS V14.00,2013-09-26 23:10:00,
2013-09-26 18:20:00,89.8,50.4,29.80,SE,129,0.0,4.9,26,0.00,,---,0.00,VWS V14.00,2013-09-26 23:20:00,
2013-09-26 18:30:00,89.4,50.0,29.80,SE,134,0.0,4.0,26,0.00,,---,0.00,VWS V14.00,2013-09-26 23:30:00,
2013-09-26 18:40:00,89.1,49.8,29.80,SSE,164,0.0,5.4,26,0.00,,---,0.00,VWS V14.00,2013-09-26 23:40:00,
2013-09-26 18:50:00,88.7,50.5,29.80,SSE,163,0.0,6.3,27,0.00,,---,0.00,VWS V14.00,2013-09-26 23:50:00,
2013-09-26 19:00:00,88.2,50.0,29.80,SSE,166,0.0,3.1,27,0.00,,---,0.00,VWS V14.00,2013-09-27 00:00:00,
2013-09-26 19:10:00,87.6,49.5,29.80,SSE,148,0.0,4.9,27,0.00,,---,0.00,VWS V14.00,2013-09-27 00:10:00,
2013-09-26 19:20:00,87.1,49.1,29.80,SSE,167,0.0,5.8,27,0.00,,---,0.00,VWS V14.00,2013-09-27 00:20:00,
2013-09-26 19:30:00,86.7,49.8,29.80,SSE,166,0.0,0.0,28,0.00,,---,0.00,VWS V14.00,2013-09-27 00:30:00,
2013-09-26 19:40:00,86.2,49.3,29.80,SSE,165,0.0,4.9,28,0.00,,---,0.00,VWS V14.00,2013-09-27 00:40:00,
2013-09-26 19:50:00,85.8,49.0,29.80,SSE,147,0.0,3.6,28,0.00,,---,0.00,VWS V14.00,2013-09-27 00:50:00,
2013-09-26 20:00:00,85.3,49.5,29.80,SSE,160,0.0,5.8,29,0.00,,---,0.00,VWS V14.00,2013-09-27 01:00:00,
2013-09-26 20:10:00,84.7,49.0,29.80,SSE,158,0.0,0.0,29,0.00,,---,0.00,VWS V14.00,2013-09-27 01:10:00,
2013-09-26 20:20:00,84.2,49.4,29.80,SSE,157,0.0,0.0,30,0.00,,---,0.00,VWS V14.00,2013-09-27 01:20:00,
2013-09-26 20:30:00,83.3,49.5,29.80,SSE,158,0.0,2.7,31,0.00,,---,0.00,VWS V14.00,2013-09-27 01:30:00,
2013-09-26 20:40:00,82.6,49.8,29.83,SSE,159,0.0,0.0,32,0.00,,---,0.00,VWS V14.00,2013-09-27 01:40:00,
2013-09-26 20:50:00,82.2,50.3,29.83,SSE,160,0.0,0.0,33,0.00,,---,0.00,VWS V14.00,2013-09-27 01:50:00,
2013-09-26 21:00:00,81.9,50.8,29.83,SSE,161,0.0,3.6,34,0.00,,---,0.00,VWS V14.00,2013-09-27 02:00:00,
2013-09-26 21:10:00,81.7,51.4,29.83,SSE,160,0.0,0.0,35,0.00,,---,0.00,VWS V14.00,2013-09-27 02:10:00,
2013-09-26 21:20:00,81.5,52.0,29.83,SSE,162,5.4,5.4,36,0.00,,---,0.00,VWS V14.00,2013-09-27 02:20:00,
2013-09-26 21:30:00,81.0,52.3,29.83,SSE,157,0.0,5.4,37,0.00,,---,0.00,VWS V14.00,2013-09-27 02:30:00,
2013-09-26 21:40:00,80.4,52.5,29.83,SSE,165,0.0,2.7,38,0.00,,---,0.00,VWS V14.00,2013-09-27 02:40:00,
2013-09-26 21:50:00,79.7,52.6,29.83,SSE,165,0.0,0.0,39,0.00,,---,0.00,VWS V14.00,2013-09-27 02:50:00,
2013-09-26 22:00:00,79.0,52.6,29.83,SSE,165,0.0,0.0,40,0.00,,---,0.00,VWS V14.00,2013-09-27 03:00:00,
2013-09-26 22:10:00,78.4,52.8,29.83,SSE,164,0.0,0.0,41,0.00,,---,0.00,VWS V14.00,2013-09-27 03:10:00,
2013-09-26 22:20:00,78.3,53.3,29.83,SSE,156,0.0,2.7,42,0.00,,---,0.00,VWS V14.00,2013-09-27 03:20:00,
2013-09-26 22:30:00,78.1,53.8,29.83,SSE,166,0.0,3.1,43,0.00,,---,0.00,VWS V14.00,2013-09-27 03:30:00,
2013-09-26 22:40:00,77.7,54.1,29.83,SSE,165,0.0,3.1,44,0.00,,---,0.00,VWS V14.00,2013-09-27 03:40:00,
2013-09-26 22:50:00,77.5,54.5,29.83,SSE,165,0.0,0.0,45,0.00,,---,0.00,VWS V14.00,2013-09-27 03:50:00,
2013-09-26 23:00:00,77.2,54.2,29.83,SSE,167,0.0,0.0,45,0.00,,---,0.00,VWS V14.00,2013-09-27 04:00:00,
2013-09-26 23:10:00,77.2,54.2,29.86,SSE,165,0.0,0.0,45,0.00,,---,0.00,VWS V14.00,2013-09-27 04:10:00,
2013-09-26 23:20:00,77.0,54.7,29.86,SSE,152,0.0,0.0,46,0.00,,---,0.00,VWS V14.00,2013-09-27 04:20:00,
2013-09-26 23:30:00,77.0,54.7,29.86,SSE,148,0.0,4.5,46,0.00,,---,0.00,VWS V14.00,2013-09-27 04:30:00,
2013-09-26 23:40:00,77.0,54.7,29.86,SSE,165,0.0,5.8,46,0.00,,---,0.00,VWS V14.00,2013-09-27 04:40:00,
2013-09-26 23:50:00,77.0,55.2,29.86,SSE,166,0.0,4.9,47,0.00,,---,0.00,VWS V14.00,2013-09-27 04:50:00,